When you browse on this site, cookies collect data to enhance your experience and personalize the content and advertising you see.
Visit our Privacy Policy to learn more. By continuing to use the site, you agree to this use of cookies and data.
  • Em Portugal
  • Lista de países
  • Para 7 dias
  • Temperatura da água
  • Mapa do tempo
  • Widgets de tempo
  • user-avatar
    Iniciar Sessão

    Previsão horária em Inverness

    Hoje, 22 Setembro, Domingo

    Tempo Temperatura Precipitação Vento Pressão Humidade
    00:00 +12°C° 0 mm 1 m/s 750 mmHg 89%
    01:00 +11°C° 0 mm 1 m/s 750 mmHg 89%
    02:00 +11°C° 0 mm 1 m/s 750 mmHg 89%
    03:00 +11°C° 0 mm 1 m/s 749 mmHg 89%
    04:00 +11°C° 0 mm 1 m/s 749 mmHg 88%
    05:00 +11°C° 0 mm 1 m/s 749 mmHg 87%
    06:00 +11°C° 0 mm 1 m/s 748 mmHg 86%
    07:00 +13°C° 0 mm 1 m/s 748 mmHg 81%
    08:00 +15°C° 0 mm 1 m/s 748 mmHg 77%
    09:00 +16°C° 0 mm 1 m/s 748 mmHg 72%
    10:00 +19°C° 0 mm 1 m/s 748 mmHg 70%
    11:00 +19°C° 0 mm 2 m/s 748 mmHg 68%
    12:00 +20°C° 0 mm 2 m/s 748 mmHg 65%
    13:00 +20°C° 0 mm 2 m/s 747 mmHg 69%
    14:00 +20°C° 0 mm 2 m/s 747 mmHg 72%
    15:00 +20°C° 0 mm 2 m/s 747 mmHg 75%
    16:00 +19°C° 0.3 mm 2 m/s 747 mmHg 81%
    17:00 +19°C° 0.3 mm 1 m/s 747 mmHg 87%
    18:00 +18°C° 0.3 mm 1 m/s 747 mmHg 93%
    19:00 +18°C° 0.4 mm 1 m/s 747 mmHg 95%
    20:00 +18°C° 0.4 mm 1 m/s 747 mmHg 96%
    21:00 +16°C° 0.4 mm 2 m/s 747 mmHg 97%
    22:00 +16°C° 0.2 mm 1 m/s 747 mmHg 97%
    23:00 +16°C° 0.2 mm 1 m/s 747 mmHg 97%

    Amanhã, 23 Setembro, Segunda-feira

    Tempo Temperatura Precipitação Vento Pressão Humidade
    00:00 +16°C° 0.2 mm 1 m/s 747 mmHg 98%
    01:00 +15°C° 1.1 mm 1 m/s 747 mmHg 98%
    02:00 +15°C° 1.1 mm 1 m/s 747 mmHg 98%
    03:00 +15°C° 1.1 mm 1 m/s 747 mmHg 98%
    04:00 +15°C° 0.3 mm 1 m/s 747 mmHg 98%
    05:00 +15°C° 0.3 mm 1 m/s 747 mmHg 98%
    06:00 +15°C° 0.3 mm 2 m/s 747 mmHg 97%
    07:00 +15°C° 0.1 mm 2 m/s 747 mmHg 96%
    08:00 +16°C° 0.1 mm 2 m/s 748 mmHg 95%
    09:00 +16°C° 0.1 mm 2 m/s 748 mmHg 93%
    10:00 +17°C° 0.1 mm 2 m/s 748 mmHg 88%
    11:00 +19°C° 0.1 mm 1 m/s 748 mmHg 83%
    12:00 +20°C° 0.1 mm 1 m/s 748 mmHg 78%
    13:00 +19°C° 0.5 mm 2 m/s 748 mmHg 78%
    14:00 +19°C° 0.5 mm 2 m/s 748 mmHg 78%
    15:00 +19°C° 0.5 mm 3 m/s 748 mmHg 78%
    16:00 +18°C° 0.4 mm 2 m/s 748 mmHg 82%
    17:00 +16°C° 0.4 mm 2 m/s 748 mmHg 86%
    18:00 +15°C° 0.4 mm 1 m/s 748 mmHg 91%
    19:00 +14°C° 0 mm 1 m/s 748 mmHg 91%
    20:00 +14°C° 0 mm 1 m/s 748 mmHg 92%
    21:00 +13°C° 0 mm 2 m/s 748 mmHg 93%
    22:00 +13°C° 0 mm 1 m/s 747 mmHg 92%
    23:00 +13°C° 0 mm 1 m/s 747 mmHg 92%

    Depois de amanhã, 24 Setembro, Terça-feira

    Tempo Temperatura Precipitação Vento Pressão Humidade
    00:00 +13°C° 0 mm 1 m/s 746 mmHg 91%
    01:00 +13°C° 0 mm 1 m/s 746 mmHg 91%
    02:00 +13°C° 0 mm 2 m/s 746 mmHg 90%
    03:00 +13°C° 0 mm 2 m/s 745 mmHg 90%
    04:00 +13°C° 0 mm 2 m/s 745 mmHg 92%
    05:00 +12°C° 0 mm 1 m/s 745 mmHg 93%
    06:00 +12°C° 0 mm 1 m/s 744 mmHg 95%
    07:00 +13°C° 0 mm 1 m/s 744 mmHg 94%
    08:00 +14°C° 0 mm 1 m/s 744 mmHg 92%
    09:00 +15°C° 0 mm 1 m/s 744 mmHg 91%
    10:00 +16°C° 0 mm 2 m/s 744 mmHg 88%
    11:00 +17°C° 0 mm 2 m/s 744 mmHg 84%
    12:00 +18°C° 0 mm 2 m/s 744 mmHg 81%
    13:00 +18°C° 0 mm 2 m/s 743 mmHg 82%
    14:00 +18°C° 0 mm 2 m/s 743 mmHg 83%
    15:00 +18°C° 0 mm 2 m/s 743 mmHg 83%
    16:00 +17°C° 0 mm 2 m/s 743 mmHg 87%
    17:00 +16°C° 0 mm 2 m/s 743 mmHg 91%
    18:00 +15°C° 0 mm 2 m/s 743 mmHg 95%
    19:00 +15°C° 0 mm 2 m/s 743 mmHg 95%
    20:00 +15°C° 0 mm 2 m/s 743 mmHg 96%
    21:00 +15°C° 0 mm 2 m/s 743 mmHg 96%
    22:00 +15°C° 0 mm 2 m/s 743 mmHg 96%
    23:00 +15°C° 0 mm 2 m/s 743 mmHg 97%

    25 Setembro, Quarta-feira

    Tempo Temperatura Precipitação Vento Pressão Humidade
    00:00 +15°C° 0 mm 2 m/s 743 mmHg 97%
    01:00 +15°C° 0 mm 2 m/s 743 mmHg 97%
    02:00 +15°C° 0 mm 2 m/s 743 mmHg 98%
    03:00 +14°C° 0 mm 3 m/s 743 mmHg 98%
    04:00 +14°C° 0 mm 3 m/s 743 mmHg 98%
    05:00 +13°C° 0 mm 3 m/s 742 mmHg 97%
    06:00 +13°C° 0 mm 3 m/s 742 mmHg 97%
    07:00 +13°C° 0.1 mm 3 m/s 742 mmHg 96%
    08:00 +13°C° 0.1 mm 3 m/s 743 mmHg 96%
    09:00 +14°C° 0.1 mm 3 m/s 743 mmHg 95%
    10:00 +14°C° 0 mm 3 m/s 743 mmHg 92%
    11:00 +16°C° 0 mm 3 m/s 743 mmHg 89%
    12:00 +16°C° 0 mm 3 m/s 743 mmHg 86%
    13:00 +17°C° 0.1 mm 3 m/s 743 mmHg 84%
    14:00 +17°C° 0.1 mm 3 m/s 742 mmHg 82%
    15:00 +17°C° 0.1 mm 3 m/s 742 mmHg 79%
    16:00 +17°C° 0.1 mm 3 m/s 742 mmHg 82%
    17:00 +16°C° 0.1 mm 3 m/s 742 mmHg 84%
    18:00 +14°C° 0.1 mm 3 m/s 742 mmHg 87%
    19:00 +14°C° 0 mm 3 m/s 742 mmHg 88%
    20:00 +14°C° 0 mm 3 m/s 741 mmHg 89%
    21:00 +13°C° 0 mm 4 m/s 741 mmHg 91%
    22:00 +13°C° 0 mm 4 m/s 740 mmHg 90%
    23:00 +13°C° 0 mm 4 m/s 740 mmHg 89%

    26 Setembro, Quinta-feira

    Tempo Temperatura Precipitação Vento Pressão Humidade
    00:00 +13°C° 0 mm 4 m/s 739 mmHg 89%
    01:00 +13°C° 0.9 mm 4 m/s 739 mmHg 89%
    02:00 +14°C° 0.9 mm 4 m/s 738 mmHg 90%
    03:00 +14°C° 0.9 mm 4 m/s 738 mmHg 90%
    04:00 +13°C° 1.2 mm 3 m/s 738 mmHg 92%
    05:00 +14°C° 1.2 mm 2 m/s 738 mmHg 93%
    06:00 +13°C° 1.2 mm 2 m/s 738 mmHg 95%
    07:00 +14°C° 0 mm 2 m/s 738 mmHg 91%
    08:00 +15°C° 0 mm 2 m/s 739 mmHg 87%
    09:00 +15°C° 0 mm 2 m/s 739 mmHg 83%
    10:00 +16°C° 0 mm 2 m/s 739 mmHg 77%
    11:00 +17°C° 0 mm 2 m/s 739 mmHg 70%
    12:00 +18°C° 0 mm 3 m/s 740 mmHg 63%
    13:00 +18°C° 0.1 mm 3 m/s 740 mmHg 64%
    14:00 +18°C° 0.1 mm 2 m/s 740 mmHg 65%
    15:00 +17°C° 0.1 mm 2 m/s 740 mmHg 66%
    16:00 +16°C° 0.1 mm 2 m/s 740 mmHg 71%
    17:00 +15°C° 0.1 mm 2 m/s 740 mmHg 77%
    18:00 +14°C° 0.1 mm 2 m/s 740 mmHg 82%
    19:00 +13°C° 0 mm 2 m/s 740 mmHg 84%
    20:00 +13°C° 0 mm 1 m/s 741 mmHg 86%
    21:00 +13°C° 0 mm 1 m/s 741 mmHg 88%
    22:00 +12°C° 0 mm 1 m/s 741 mmHg 89%
    23:00 +12°C° 0 mm 1 m/s 741 mmHg 90%

    27 Setembro, Sexta-feira

    Tempo Temperatura Precipitação Vento Pressão Humidade
    00:00 +12°C° 0 mm 1 m/s 741 mmHg 91%
    01:00 +12°C° 0 mm 1 m/s 741 mmHg 91%
    02:00 +11°C° 0 mm 1 m/s 741 mmHg 91%
    03:00 +11°C° 0 mm 1 m/s 741 mmHg 92%
    04:00 +11°C° 0 mm 1 m/s 741 mmHg 92%
    05:00 +10°C° 0 mm 1 m/s 741 mmHg 93%
    06:00 +10°C° 0 mm 1 m/s 741 mmHg 94%
    07:00 +11°C° 0 mm 1 m/s 741 mmHg 90%
    08:00 +12°C° 0 mm 1 m/s 741 mmHg 86%
    09:00 +13°C° 0 mm 1 m/s 741 mmHg 82%
    10:00 +14°C° 0 mm 2 m/s 741 mmHg 78%
    11:00 +15°C° 0 mm 2 m/s 741 mmHg 74%
    12:00 +16°C° 0 mm 3 m/s 741 mmHg 69%
    13:00 +16°C° 0.1 mm 3 m/s 741 mmHg 70%
    14:00 +16°C° 0.1 mm 3 m/s 741 mmHg 71%
    15:00 +14°C° 0.1 mm 3 m/s 740 mmHg 72%
    16:00 +15°C° 0.1 mm 2 m/s 740 mmHg 77%
    17:00 +14°C° 0.1 mm 2 m/s 740 mmHg 81%
    18:00 +13°C° 0.1 mm 2 m/s 740 mmHg 86%
    19:00 +12°C° 0 mm 2 m/s 740 mmHg 88%
    20:00 +10°C° 0 mm 2 m/s 740 mmHg 90%
    21:00 +10°C° 0 mm 2 m/s 740 mmHg 93%
    22:00 +10°C° 0.2 mm 2 m/s 739 mmHg 93%
    23:00 +11°C° 0.2 mm 3 m/s 739 mmHg 94%
    Mostrar mais